OpenBCM V1.08-5-g2f4a (Linux)

Packet Radio Mailbox

IZ3LSV

[San Dona' di P. JN]

 Login: GUEST





  
I0OJJ  > KEPS     07.12.25 12:01l 311 Lines 14856 Bytes #172 (0) @ AMSAT
BID : ORB25338.1
Read: GUEST
Subj: 2Line Orbital Elements 25338.AMSAT
Path: IZ3LSV<ED1ZAC<LU1DBQ<LU9DCE<VK2RZ<IR0AAB<I0OJJ
Sent: 251204/0021z @:I0OJJ.ITA.EU [Rome] obcm1.08-11-2-gbfe9
From: I0OJJ @ I0OJJ.ITA.EU (Gustavo)
To:   KEPS @ AMSAT
X-Info: This message was generated automatically


QST de W1STR

AMSAT Orbital Elements for Amateur Satellites in TLE Format
From Orbital Analysis Office
New England Sci-Tech STEM Education Center
Natick MA December 04, 2025
To all radio amateurs


These element sets describe the orbits of various satellites 
in use by the amateur radio community. For details see:
www.amsat.org/keplerian-elements-formats/

A daily update of element sets is available at:
www.amsat.org/tle/daily-bulletin.txt
or without bulletin text:
www.amsat.org/tle/dailytle.txt


AO-07
1 07530U 74089B   25337.57370573 -.00000025  00000-0  13640-3 0  9995
2 07530 101.9968 343.7450 0012321 143.8689 346.6656 12.53693961336008
UO-11
1 14781U 84021B   25337.79525705  .00002836  00000-0  29889-3 0  9994
2 14781  97.7794 300.9636 0009212 106.5536 253.6694 14.90091535228029
AO-27
1 22825U 93061C   25337.69832774  .00000228  00000-0  10408-3 0  9992
2 22825  98.7160  39.9437 0007632 319.3851  40.6761 14.30871264679041
FO-29
1 24278U 96046B   25337.60486277  .00000025  00000-0  63958-4 0  9990
2 24278  98.5468 207.9658 0348934 243.7279 112.7618 13.53261907446712
GO-32
1 25397U 98043D   25337.71533111  .00000148  00000-0  84208-4 0  9991
2 25397  98.9913 320.7195 0002229  72.3481 287.7940 14.24372842423502
ISS
1 25544U 98067A   25337.44684604  .00011600  00000-0  21633-3 0  9992
2 25544  51.6306 188.4862 0003633 200.0092 160.0755 15.49271748541415
NO-44
1 26931U 01043C   25337.58578412  .00000328  00000-0  15338-3 0  9995
2 26931  67.0520  30.1515 0007399 270.4925  89.5329 14.31846589262448
SO-50
1 27607U 02058C   25337.49550075  .00003019  00000-0  37825-3 0  9993
2 27607  64.5547  14.1696 0071774 298.3245  61.0633 14.82327057235447
CO-55
1 27844U 03031E   25337.52699446  .00000574  00000-0  26796-3 0  9996
2 27844  98.6766 343.5489 0010253  38.8958 321.2956 14.24166335163820
CO-57
1 27848U 03031J   25337.48903880  .00000467  00000-0  22476-3 0  9997
2 27848  98.6796 343.3809 0010390  55.8589 304.3574 14.23476318163532
RS-22
1 27939U 03042A   25337.88814034  .00002140  00000-0  34169-3 0  9998
2 27939  98.3365 151.8533 0011603 162.6698 307.0114 14.72928474186796
CO-58
1 28895U 05043F   25337.67204183  .00003146  00000-0  51047-3 0  9999
2 28895  98.2717 124.5969 0015383 105.1524 255.1385 14.71838810 72988
CO-65
1 32785U 08021C   25337.47547803  .00009679  00000-0  65232-3 0  9996
2 32785  97.8071 310.4339 0009016 344.9046  15.1910 15.06854149955692
CO-66
1 32791U 08021J   25337.45500417  .00023574  00000-0  95274-3 0  9990
2 32791  97.7433 322.2849 0001225 311.4707  48.6424 15.24747441957389
RS-30
1 32953U 08025A   25337.45555563  .00000024  00000-0  98123-4 0  9998
2 32953  82.5010 117.1971 0019272  21.2492 338.9384 12.43171753795371
SRMSAT
1 37841U 11058D   25337.76676545  .00000501  00000-0  12830-3 0  9997
2 37841  19.9699 162.2602 0011727 213.9486 246.2515 14.11506453730171
ZACUBE-1
1 39417U 13066B   25337.31307204  .00007686  00000-0  62894-3 0  9999
2 39417  97.8059 293.8437 0041439 177.2945 182.8509 14.98934260651366
Delfi-N3xt
1 39428U 13066N   25337.28319794  .00009084  00000-0  85585-3 0  9990
2 39428  97.8339 253.2423 0080407 136.1294 224.6348 14.91591132645384
GOMX-1
1 39430U 13066Q   25337.49909882  .00003636  00000-0  55876-3 0  9996
2 39430  97.6599 185.2021 0130421 346.3370  13.4318 14.68511059641182
LO-74
1 39440U 13066AA  25337.34934992  .00007865  00000-0  75963-3 0  9998
2 39440  97.8693 281.0341 0058875 317.7472  41.9218 14.91803083647770
AO-73
1 39444U 13066AE  25337.41844924  .00010520  00000-0  71835-3 0  9991
2 39444  97.8048 300.5857 0040127 145.8325 214.5496 15.05708317650168
DTUSAT-2
1 40030U 14033W   25337.46847381  .00010854  00000-0  64448-3 0  9996
2 40030  98.0744 318.4154 0008371 168.2894 191.8531 15.11485765623084
EO-80
1 40032U 14033Y   25337.67820309  .00012444  00000-0  73627-3 0  9998
2 40032  98.0627 318.0430 0009664 113.5612 246.6633 15.11563639623096
LILACSAT-2
1 40908U 15049K   25337.86036918  .00025005  00000-0  54345-3 0  9997
2 40908  97.4919   2.9723 0006408 234.1984 125.8669 15.44311673565530
IO-86
1 40931U 15052B   25151.18580175  .00001241  00000-0  78118-4 0  9996
2 40931   6.0006  24.0987 0012733 338.8432  21.1169 14.78805930523159
Horyu-4
1 41340U 16012D   25337.41060447  .00058982  00000-0  10303-2 0  9999
2 41340  30.9955  13.9746 0006509 142.7886 217.3215 15.49350618540104
Lapan A3
1 41603U 16040E   25337.87418245  .00006176  00000-0  20552-3 0  9991
2 41603  97.1420 335.7542 0010789   6.6379 353.5004 15.31440463524905
CAS-2T
1 41847U 16066G   25337.82395757  .00001529  00000-0  22448-3 0  9999
2 41847  98.4049  50.6509 0343951   2.1844 358.0755 14.44097656476599
TechnoSat
1 42829U 17042E   25337.41008007  .00006199  00000-0  45972-3 0  9994
2 42829  97.4014 138.0194 0018880  43.5607 316.7106 15.03282092457279
AO-91
1 43017U 17073E   25337.62471539  .00017003  00000-0  80848-3 0  9992
2 43017  97.4960 204.0285 0160149 282.0782  76.2541 15.08549102435869
S-Net D
1 43186U 18014G   25337.70099782  .00009409  00000-0  51883-3 0  9998
2 43186  97.5490 238.8624 0008339 347.6177  12.4848 15.14165922429153
S-Net B
1 43187U 18014H   25337.70891122  .00009260  00000-0  51099-3 0  9991
2 43187  97.5498 238.8501 0008843 342.3878  17.7045 15.14142498429156
S-Net A
1 43188U 18014J   25337.70074404  .00009311  00000-0  51337-3 0  9990
2 43188  97.5502 239.0169 0008781 342.7785  17.3147 15.14171799429153
S-Net C
1 43189U 18014K   25337.71184781  .00009265  00000-0  51117-3 0  9996
2 43189  97.5523 239.0720 0009931 333.9006  26.1724 15.14137829427700
Ten-Koh
1 43677U 18084G   25337.45018063  .00005143  00000-0  40002-3 0  9997
2 43677  98.0722 156.6945 0009375  49.2306 310.9729 15.01716917386771
PO-101
1 43678U 18084H   25337.84311801  .00004245  00000-0  35208-3 0  9991
2 43678  98.1019 160.9486 0007415  67.7058 292.4949 14.99360644386936
QO-100
1 43700U 18090A   25337.72095899  .00000000  00000-0  00000+0 0  9990
2 43700   0.0224 354.1273 0001562 271.1990  92.7968  1.00273016 25718
MinXSS-2
1 43758U 18099A   25337.68915728  .00035767  00000-0  10916-2 0  9997
2 43758  97.4819  44.9356 0008832 246.3252 113.7064 15.33798277384035
AO-95
1 43770U 18099N   25337.12653712  .00015948  00000-0  70991-3 0  9991
2 43770  97.4697  33.4829 0008811 323.8072  36.2567 15.21515466383354
SNUSat 2
1 43782U 18099AA  25337.62882740  .00014063  00000-0  69335-3 0  9991
2 43782  97.4374  29.1930 0009756 258.1214 101.8926 15.18002373383320
SnugLite
1 43784U 18099AC  25337.37912698  .00016115  00000-0  70980-3 0  9999
2 43784  97.4188  28.9620 0001744 249.2783 110.8266 15.21907605383489
ITASat 1
1 43786U 18099AE  25337.72104507  .00011162  00000-0  58564-3 0  9993
2 43786  97.4344  28.2220 0012363 318.4392  41.5899 15.15846186383265
EAGLET 1
1 43790U 18099AJ  25337.10271157  .00007154  00000-0  43203-3 0  9996
2 43790  97.4543  26.8888 0010372 307.3974  52.6312 15.10956035382707
ESEO
1 43792U 18099AL  25337.63015330  .00002417  00000-0  18172-3 0  9999
2 43792  97.4252  18.1880 0010250 283.1454  76.8628 15.03423624382412
JO-97
1 43803U 18099AX  25337.63915274  .00023615  00000-0  90855-3 0  9999
2 43803  97.4438  35.4875 0005452 238.4638 121.6069 15.26377247383729
Suomi 100
1 43804U 18099AY  25337.78655806  .00020766  00000-0  88502-3 0  9998
2 43804  97.4504  34.3193 0009868 246.6145 113.4054 15.22933177383622
ISAT
1 43879U 18111D   25337.77785090  .00054683  00000-0  13283-2 0  9991
2 43879  97.5912 257.1234 0004350 312.0483  48.0393 15.40814433380868
UWE-4
1 43880U 18111E   25337.50139914  .00035371  00000-0  10828-2 0  9997
2 43880  97.5859 253.7741 0008483 319.7509  40.3104 15.33707321380661
Sparrow
1 43881U 18111F   25337.77531043  .00058809  00000-0  13288-2 0  9990
2 43881  97.6095 260.8213 0005049   5.0019 355.1277 15.42971520380981
Prox-1
1 44339U 19036A   25337.30047670  .00019795  00000-0  22428-2 0  9990
2 44339  23.9977 337.2688 0006186 289.8153  70.1678 14.84804653344267
Taurus 1
1 44530U 19059C   25337.84859061  .00015435  00000-0  26410-2 0  9994
2 44530  98.6221 126.2132 0009101 201.6920 158.3900 14.68903236329938
Duchifat 3
1 44854U 19089C   25337.20011490  .01105376  61298-3  19590-2 0  9997
2 44854  36.9264 289.0060 0011659 216.1192 143.8795 16.00863037330610
TO-108
1 44881U 19093C   25337.81268896  .00001650  00000-0  19427-3 0  9993
2 44881  97.7770  49.6435 0013984  15.5288 344.6354 14.86069926322398
FloripaSat 1
1 44885U 19093G   25337.84526229  .00011236  00000-0  88145-3 0  9991
2 44885  97.8061  65.9970 0011294   5.3826 354.7517 15.01069034323312
RS-44
1 44909U 19096E   25337.71050318 -.00000004  00000-0 -55307-4 0  9996
2 44909  82.5201 109.6082 0216764 241.2744 116.6423 12.79745713277344
SALSAT
1 46495U 20068K   25337.68055986  .00012339  00000-0  48106-3 0  9991
2 46495  97.8771 324.4663 0008601 267.9684  92.0568 15.26074761285503
CSS (TIANHE-1)
1 48274U 21035A   25337.74559545  .00027527  00000-0  35133-3 0  9991
2 48274  41.4679  71.2873 0010069 322.1315  37.8814 15.58598848262629
TUBIN
1 48900U 21059X   25337.82734361  .00587297  16084-3  10160-2 0  9992
2 48900  97.6678 164.8935 0003389 285.2216  74.8688 16.02333465247895
CUTE
1 49263U 21088D   25337.78448471  .00037209  00000-0  49947-3 0  9993
2 49263  97.4368  60.2378 0004515 310.6839  49.4023 15.57839909231907
TeikyoSat 4
1 49396U 21102B   25337.58147662  .00003991  00000-0  25902-3 0  9999
2 49396  97.3907   9.5253 0010860 243.1310 116.8809 15.08573060223220
Z-Sat
1 49399U 21102E   25337.86863500  .00008310  00000-0  43081-3 0  9997
2 49399  97.3594  14.0796 0016581 203.5783 156.4692 15.16295975223829
